Regional Weather Roundup
Issued by NWS State College, PA

Home | Current Version | Previous Version | Text Only | Print | Product List | Glossary On
Versions: 1 2 3 4 5 6 7 8 9 10 11 12 13 14 15 16 17 18 19 20 21 22 23 24 25 26 27 28 29 30 31 32 33 34 35 36 37 38 39 40 41 42 43 44 45 46 47 48 49 50
000
ASUS41 KCTP 152103
RWRCTP

REGIONAL WEATHER ROUNDUP
NATIONAL WEATHER SERVICE STATE COLLEGE PA
400 PM EST FRI DEC 15 2017

Note: "fair" indicates few or no clouds below 12,000 feet with no
significant weather and/or obstructions to visibility.

* = STATION THAT DOES NOT REPORT PRECIPITATION /E.G. RAIN...SNOW...ETC/
    THUNDER OR FOG.

PAZ002>004-007>009-013>016-020>023-029>032-152200-
WESTERN PENNSYLVANIA

CITY           SKY/WX    TMP DP  RH WIND       PRES   REMARKS
ERIE           LGT SNOW  24  16  71 S20G26    29.80S VSB 1   WCI  10
MEADVILLE      LGT SNOW  21  15  78 SW13G22   29.80S WCI   9
FRANKLIN*      FLURRIES  22  13  68 SW14G20   29.80F WCI   9
NEW CASTLE     FLURRIES  26  16  65 SW12G17   29.86S
BEAVER COUNTY  CLOUDY   N/A N/A N/A SW12      29.86S
BUTLER*        CLOUDY    25  14  63 SW10      29.86S WCI  15
PITTSBURGH INT CLOUDY    29  14  53 SW13G21   29.86F
PITTSBURGH     CLOUDY    26  11  52 SW12      29.86F
INDIANA*       CLOUDY    25  12  58 W10G16    29.88S WCI  15
LATROBE        CLOUDY    27  16  63 W12       29.89R
WASHINGTON CO* CLOUDY    28  15  58 SW14      29.91F
$$

PAZ004>006-010>012-017>019-024>028-033>037-041-042-045-046-049>053-152200-
CENTRAL PENNSYLVANIA

CITY           SKY/WX    TMP DP  RH WIND       PRES   REMARKS
BRADFORD       CLOUDY    20  11  68 SW8       29.73S WCI  10
DUBOIS         CLOUDY    21  10  62 W13       29.78F WCI   9
CLEARFIELD     PTCLDY    24  10  55 W18G25    29.81S WCI  10
JOHNSTOWN      CLOUDY    21  15  78 W14G24    29.78R WCI   8
ALTOONA        CLOUDY    24  20  84 SW8       29.84S FOG
STATE COLLEGE  LGT SNOW  21  18  86 SW7       29.83F WCI  13
WILLIAMSPORT   CLOUDY    25  16  68 S3        29.88S
SELINSGROVE    CLOUDY    24  19  81 S6        29.90F
FT INDIANTOWN  CLOUDY    23  23 100 CALM      29.91S
CAPITAL CITY   CLOUDY    26  20  77 CALM      29.92S
HARRISBURG     CLOUDY    26  22  84 CALM      29.91F FOG
YORK           LGT SNOW  24  22  91 CALM      29.91S FOG
$$

PAZ038>040-043-044-047-048-054-055-060>062-067>071-152200-
EASTERN PENNSYLVANIA

CITY           SKY/WX    TMP DP  RH WIND       PRES   REMARKS
SCRANTON       LGT SNOW  20  17  88 CALM      29.85S VSB 1
MOUNT POCONO   LGT SNOW  16  13  88 SW6       29.78F FOG     WCI   7
ALLENTOWN      LGT SNOW  23  18  81 CALM      29.92F VSB 3/4
QUAKERTOWN*    CLOUDY    21  19  93 CALM      29.91F VSB 3/4
READING        LGT SNOW  22  22 100 CALM      29.91F VSB 3/4
LANCASTER      LGT SNOW  23  23 100 CALM      29.92F VSB 1
COATESVILLE    SNOW      23  23 100 CALM      29.91F VSB 1/2
POTTSTOWN      SNOW      22  20  92 CALM      29.94S VSB 1/4
BLUE BELL      CLOUDY    23  21  93 CALM      29.95R VSB 1/2
DOYLESTOWN     LGT SNOW  22  19  89 NW3       29.92R FOG
WILLOW GROVE   NOT AVBL
NORTH PHILA    SNOW      25  22  88 N3        29.96R VSB 1/4
PHILADELPHIA   SNOW      25  22  88 NW3       29.96R VSB 1/2
$$




USA.gov is the U.S. government's official web portal to all federal, state and local government web resources and services.